TimeEDT,TemperatureF,Dew PointF,Humidity,Sea Level PressureIn,VisibilityMPH,Wind Direction,Wind SpeedMPH,Gust SpeedMPH,PrecipitationIn,Events,Conditions,WindDirDegrees,DateUTC
12:54 AM,55.9,46.0,69,29.92,-9999.0,SW,9.2,-,0.02,,Unknown,220,2013-04-25 04:54:00
1:54 AM,54.0,41.0,62,29.94,-9999.0,Calm,Calm,-,N/A,,Unknown,0,2013-04-25 05:54:00
2:54 AM,51.1,37.0,59,29.98,-9999.0,North,9.2,18.4,N/A,,Unknown,350,2013-04-25 06:54:00
3:54 AM,46.9,30.9,54,30.02,-9999.0,North,5.8,-,N/A,,Unknown,360,2013-04-25 07:54:00
4:54 AM,45.0,30.0,56,30.07,-9999.0,NNW,9.2,16.1,N/A,,Unknown,340,2013-04-25 08:54:00
5:54 AM,43.0,28.9,58,30.12,-9999.0,North,9.2,18.4,N/A,,Unknown,350,2013-04-25 09:54:00
6:54 AM,42.1,28.0,58,30.16,-9999.0,North,8.1,-,N/A,,Unknown,350,2013-04-25 10:54:00
7:54 AM,45.0,27.0,49,30.18,-9999.0,North,9.2,16.1,N/A,,Unknown,360,2013-04-25 11:54:00
8:54 AM,46.9,25.0,42,30.19,-9999.0,NNW,11.5,17.3,N/A,,Unknown,340,2013-04-25 12:54:00
9:54 AM,48.0,27.0,44,30.19,-9999.0,Variable,5.8,-,N/A,,Unknown,0,2013-04-25 13:54:00
10:54 AM,50.0,25.0,38,30.20,-9999.0,Variable,3.5,-,N/A,,Unknown,0,2013-04-25 14:54:00
11:54 AM,55.0,25.0,31,30.19,-9999.0,Variable,4.6,-,N/A,,Unknown,0,2013-04-25 15:54:00
12:54 PM,57.9,26.1,30,30.19,-9999.0,NW,9.2,16.1,N/A,,Unknown,310,2013-04-25 16:54:00
1:54 PM,59.0,24.1,26,30.17,-9999.0,Variable,3.5,-,N/A,,Unknown,0,2013-04-25 17:54:00
2:54 PM,60.1,23.0,24,30.16,-9999.0,Variable,4.6,-,N/A,,Unknown,0,2013-04-25 18:54:00
3:54 PM,62.1,19.9,20,30.16,-9999.0,Variable,3.5,-,N/A,,Unknown,0,2013-04-25 19:54:00
4:54 PM,62.1,21.0,21,30.15,-9999.0,Calm,Calm,-,N/A,,Unknown,0,2013-04-25 20:54:00
5:54 PM,62.1,19.0,19,30.17,-9999.0,Variable,3.5,-,N/A,,Unknown,0,2013-04-25 21:54:00
6:54 PM,61.0,14.0,16,30.18,-9999.0,Calm,Calm,-,N/A,,Unknown,0,2013-04-25 22:54:00
7:54 PM,57.9,25.0,28,30.19,-9999.0,Calm,Calm,-,N/A,,Unknown,0,2013-04-25 23:54:00
8:54 PM,51.1,35.1,54,30.23,-9999.0,Calm,Calm,-,N/A,,Unknown,0,2013-04-26 00:54:00
9:54 PM,48.0,37.0,66,30.26,-9999.0,Calm,Calm,-,N/A,,Unknown,0,2013-04-26 01:54:00
10:54 PM,46.0,37.0,71,30.27,-9999.0,Calm,Calm,-,N/A,,Unknown,0,2013-04-26 02:54:00
11:54 PM,45.0,37.9,76,30.27,-9999.0,Calm,Calm,-,N/A,,Unknown,0,2013-04-26 03:54:00